COSMOS 886 DEB *

Satellite information

Favourite Embed

Satellite Type and Status

DEBRISIN ORBIT

Key statistics

Satellite COSMOS 886 DEB * at a glance.

Uptime

17889

Days in orbit

Revolutions

≈ 13.0

Per day

Orbit

LEO

Low Earth Orbit

Inclination

65.7

Latest

Satellite identification and parameters

Extended collection of information and parameters for COSMOS 886 DEB *.

Object identification

Identified? True

Debris? True

Object name: COSMOS 886 DEB *

International designator: 1976-126AU

Object number (NORAD): 9954

Object ID (CCSDS): 9954

Country: COMMONWEALTH OF INDEPENDENT STATES (CIS)

Current information (Y/N): Y

RCS size: SMALL

Orbital parameters

Period: 110.435 minutes

Inclination: 65.6987 deg

SMA: 7624.87 km

Apoapsis: 1924.779 km

Periapsis: 568.691 km

RAAN: 176.3246 deg

Eccentricy: 0.08892535

Argument of periapsis: 117.7392 deg

Mean anomaly: 251.6681 deg

Mean motion: 13.03929442 rev/day

Mean motion (dot): 0.00000218 rev/day2

B* drag term: 0.00013023153 1/REarth

Two-line elements (TLE)

Creation date: Dec. 17, 2025, 7:48 p.m.

Reference frame: TEME

Reference center: EARTH

Epoch: Dec. 17, 2025, 2:57 p.m. UTC

TLE line 0: 0 COSMOS 886 DEB *

TLE line 1: 1 09954U 76126AU 25351.62339836 .00000218 00000-0 13023-3 0 9998

TLE line 2: 2 09954 65.6987 176.3246 0889254 117.7392 251.6681 13.03929442603415

Live tracking on map

Real-time ground track for satellite COSMOS 886 DEB *.

In-orbit conjunctions

A list of the most updated potential collisions computed for object COSMOS 886 DEB *.

Target Orbit TCA Probability of collision Miss distance Type
COSMOS 789 DEB LEO 2024-07-02 12:51:16 0.0001072485 105.0 (m) DEBRIS

Associated space launch

Second generation ASAT satellite

COSMOS 886 DEB * was lifted into orbit during the mission ‘Tsiklon-2 | IS-A 4’, on board a Tsiklon-2 space rocket.

The launch took place on Dec. 27, 1976, 12:05 p.m. from 90.

For more information about the launch, click the button.

Launch to space Tsiklon-2 | IS-A 4
Tsiklon-2 | IS-A 4

Agency: N/A

Status: Launch Successful

Launch date: Dec. 27, 1976, 12:05 p.m. UTC

Rocket: Tsiklon-2

Launch pad: 90

Location: Baikonur Cosmodrome, Republic of Kazakhstan

...

Latest news about this satellite

There are no fresh news available about this satellite. Check back as we update our databases every day.


Newsletter sign-up

Weekly statistics, charts and insights to help you stay on top of the space industry.